When you browse on this site, cookies collect data to enhance your experience and personalize the content and advertising you see.
Visit our Privacy Policy to learn more. By continuing to use the site, you agree to this use of cookies and data.
  • In Sweden
  • List of Countries
  • For 7 days
  • Water Temperature
  • Weather Map
  • Weather Widgets
  • user-avatar
    Login

    Hourly Weather Tarascha

    Today, 5 June, Friday

    Time Temperature Precipitation Wind Pressure Humidity
    00:00 +12°C° 0.2 mm 5 mps 738 mmHg 91%
    01:00 +12°C° 0.2 mm 5 mps 738 mmHg 93%
    02:00 +12°C° 0 mm 5 mps 738 mmHg 94%
    03:00 +12°C° 0.1 mm 5 mps 738 mmHg 93%
    04:00 +12°C° 0.1 mm 5 mps 738 mmHg 93%
    05:00 +12°C° 0.1 mm 5 mps 738 mmHg 93%
    06:00 +13°C° 0.1 mm 5 mps 738 mmHg 92%
    07:00 +14°C° 0.1 mm 5 mps 739 mmHg 92%
    08:00 +15°C° 0.1 mm 5 mps 739 mmHg 91%
    09:00 +16°C° 0.1 mm 5 mps 739 mmHg 88%
    10:00 +18°C° 0.1 mm 4 mps 739 mmHg 85%
    11:00 +19°C° 0.1 mm 4 mps 740 mmHg 83%
    12:00 +20°C° 0.6 mm 5 mps 740 mmHg 79%
    13:00 +21°C° 0.6 mm 5 mps 740 mmHg 75%
    14:00 +23°C° 0.6 mm 5 mps 740 mmHg 71%
    15:00 +23°C° 0.4 mm 5 mps 740 mmHg 74%
    16:00 +23°C° 0.4 mm 4 mps 740 mmHg 76%
    17:00 +24°C° 0.4 mm 3 mps 740 mmHg 78%
    18:00 +21°C° 0.2 mm 3 mps 740 mmHg 80%
    19:00 +20°C° 0.2 mm 3 mps 740 mmHg 83%
    20:00 +18°C° 0.2 mm 3 mps 740 mmHg 86%
    21:00 +18°C° 0 mm 3 mps 741 mmHg 88%
    22:00 +17°C° 0 mm 4 mps 741 mmHg 91%
    23:00 +16°C° 0 mm 5 mps 741 mmHg 93%

    Tomorrow, 6 June, Saturday

    Time Temperature Precipitation Wind Pressure Humidity
    00:00 +15°C° 0 mm 4 mps 741 mmHg 94%
    01:00 +15°C° 0 mm 4 mps 741 mmHg 94%
    02:00 +14°C° 0 mm 4 mps 741 mmHg 95%
    03:00 +14°C° 0 mm 4 mps 742 mmHg 95%
    04:00 +14°C° 0 mm 5 mps 742 mmHg 96%
    05:00 +14°C° 0 mm 5 mps 742 mmHg 96%
    06:00 +16°C° 0 mm 5 mps 742 mmHg 94%
    07:00 +17°C° 0 mm 5 mps 743 mmHg 91%
    08:00 +20°C° 0 mm 5 mps 743 mmHg 89%
    09:00 +21°C° 0.3 mm 5 mps 743 mmHg 84%
    10:00 +23°C° 0.3 mm 5 mps 743 mmHg 80%
    11:00 +26°C° 0.3 mm 5 mps 744 mmHg 76%
    12:00 +26°C° 0.5 mm 5 mps 744 mmHg 74%
    13:00 +26°C° 0.5 mm 5 mps 744 mmHg 72%
    14:00 +26°C° 0.5 mm 4 mps 744 mmHg 70%
    15:00 +26°C° 0.2 mm 4 mps 744 mmHg 73%
    16:00 +26°C° 0.2 mm 4 mps 744 mmHg 76%
    17:00 +25°C° 0.2 mm 4 mps 744 mmHg 79%
    18:00 +23°C° 0.1 mm 4 mps 744 mmHg 82%
    19:00 +22°C° 0.1 mm 3 mps 744 mmHg 86%
    20:00 +20°C° 0.1 mm 3 mps 744 mmHg 89%
    21:00 +20°C° 0 mm 2 mps 745 mmHg 88%
    22:00 +19°C° 0 mm 2 mps 745 mmHg 87%
    23:00 +18°C° 0 mm 2 mps 745 mmHg 87%

    Day after tomorrow, 7 June, Sunday

    Time Temperature Precipitation Wind Pressure Humidity
    00:00 +17°C° 0 mm 2 mps 745 mmHg 87%
    01:00 +17°C° 0 mm 2 mps 745 mmHg 86%
    02:00 +16°C° 0 mm 2 mps 745 mmHg 86%
    03:00 +16°C° 0 mm 2 mps 745 mmHg 86%
    04:00 +16°C° 0 mm 2 mps 745 mmHg 87%
    05:00 +16°C° 0 mm 2 mps 745 mmHg 87%
    06:00 +17°C° 0 mm 3 mps 746 mmHg 84%
    07:00 +19°C° 0 mm 3 mps 746 mmHg 80%
    08:00 +20°C° 0 mm 3 mps 746 mmHg 77%
    09:00 +22°C° 0 mm 4 mps 746 mmHg 73%
    10:00 +23°C° 0 mm 4 mps 746 mmHg 69%
    11:00 +25°C° 0 mm 4 mps 746 mmHg 65%
    12:00 +26°C° 0 mm 4 mps 746 mmHg 65%
    13:00 +26°C° 0 mm 4 mps 746 mmHg 64%
    14:00 +27°C° 0 mm 4 mps 746 mmHg 64%
    15:00 +27°C° 0 mm 4 mps 746 mmHg 67%
    16:00 +26°C° 0 mm 4 mps 745 mmHg 69%
    17:00 +26°C° 0 mm 3 mps 745 mmHg 72%
    18:00 +24°C° 0 mm 3 mps 745 mmHg 75%
    19:00 +21°C° 0 mm 3 mps 745 mmHg 78%
    20:00 +19°C° 0 mm 3 mps 745 mmHg 81%
    21:00 +19°C° 0 mm 3 mps 745 mmHg 83%
    22:00 +18°C° 0 mm 3 mps 745 mmHg 85%
    23:00 +18°C° 0 mm 3 mps 745 mmHg 87%

    8 June, Monday

    Time Temperature Precipitation Wind Pressure Humidity
    00:00 +18°C° 0 mm 3 mps 745 mmHg 89%
    01:00 +17°C° 0 mm 3 mps 745 mmHg 91%
    02:00 +17°C° 0 mm 2 mps 745 mmHg 93%
    03:00 +17°C° 0 mm 3 mps 745 mmHg 92%
    04:00 +17°C° 0 mm 3 mps 745 mmHg 91%
    05:00 +17°C° 0 mm 3 mps 745 mmHg 90%
    06:00 +19°C° 0 mm 4 mps 745 mmHg 86%
    07:00 +20°C° 0 mm 4 mps 745 mmHg 82%
    08:00 +22°C° 0 mm 5 mps 745 mmHg 78%
    09:00 +23°C° 0 mm 5 mps 745 mmHg 74%
    10:00 +24°C° 0 mm 6 mps 745 mmHg 70%
    11:00 +26°C° 0 mm 6 mps 745 mmHg 66%
    12:00 +27°C° 0 mm 6 mps 744 mmHg 65%
    13:00 +27°C° 0 mm 6 mps 744 mmHg 64%
    14:00 +28°C° 0 mm 5 mps 744 mmHg 63%
    15:00 +27°C° 0 mm 5 mps 744 mmHg 66%
    16:00 +27°C° 0 mm 5 mps 743 mmHg 69%
    17:00 +27°C° 0 mm 4 mps 743 mmHg 72%
    18:00 +26°C° 0 mm 4 mps 743 mmHg 75%
    19:00 +23°C° 0 mm 4 mps 743 mmHg 78%
    20:00 +22°C° 0 mm 4 mps 743 mmHg 81%
    21:00 +21°C° 0 mm 4 mps 743 mmHg 84%
    22:00 +20°C° 0 mm 4 mps 743 mmHg 86%
    23:00 +20°C° 0 mm 4 mps 744 mmHg 88%

    9 June, Tuesday

    Time Temperature Precipitation Wind Pressure Humidity
    00:00 +19°C° 0 mm 4 mps 743 mmHg 89%
    01:00 +19°C° 0 mm 3 mps 743 mmHg 90%
    02:00 +18°C° 0 mm 3 mps 743 mmHg 91%
    03:00 +18°C° 0 mm 3 mps 743 mmHg 91%
    04:00 +18°C° 0 mm 3 mps 743 mmHg 91%
    05:00 +18°C° 0 mm 3 mps 743 mmHg 91%
    06:00 +19°C° 0 mm 4 mps 744 mmHg 86%
    07:00 +21°C° 0 mm 5 mps 744 mmHg 81%
    08:00 +23°C° 0 mm 5 mps 744 mmHg 77%
    09:00 +25°C° 0 mm 5 mps 744 mmHg 73%
    10:00 +26°C° 0 mm 6 mps 744 mmHg 69%
    11:00 +27°C° 0 mm 6 mps 744 mmHg 66%
    12:00 +28°C° 0 mm 6 mps 744 mmHg 65%
    13:00 +28°C° 0 mm 6 mps 744 mmHg 64%
    14:00 +29°C° 0 mm 5 mps 744 mmHg 63%
    15:00 +29°C° 0 mm 5 mps 744 mmHg 66%
    16:00 +28°C° 0 mm 4 mps 743 mmHg 69%
    17:00 +28°C° 0 mm 4 mps 743 mmHg 73%
    18:00 +27°C° 0.1 mm 4 mps 743 mmHg 76%
    19:00 +25°C° 0.1 mm 4 mps 743 mmHg 79%
    20:00 +22°C° 0.1 mm 3 mps 743 mmHg 82%
    21:00 +22°C° 0 mm 3 mps 743 mmHg 84%
    22:00 +21°C° 0 mm 3 mps 744 mmHg 86%
    23:00 +21°C° 0 mm 3 mps 744 mmHg 87%

    10 June, Wednesday

    Time Temperature Precipitation Wind Pressure Humidity
    00:00 +20°C° 0.2 mm 3 mps 744 mmHg 89%
    01:00 +20°C° 0.2 mm 3 mps 744 mmHg 91%
    02:00 +19°C° 0.2 mm 3 mps 744 mmHg 93%
    03:00 +19°C° 0 mm 3 mps 744 mmHg 92%
    04:00 +19°C° 0 mm 3 mps 744 mmHg 91%
    05:00 +19°C° 0 mm 2 mps 744 mmHg 90%
    06:00 +21°C° 0 mm 2 mps 744 mmHg 85%
    07:00 +24°C° 0 mm 2 mps 744 mmHg 80%
    08:00 +25°C° 0 mm 2 mps 744 mmHg 76%
    09:00 +27°C° 0 mm 3 mps 744 mmHg 71%
    10:00 +28°C° 0 mm 3 mps 744 mmHg 66%
    11:00 +29°C° 0 mm 4 mps 744 mmHg 62%
    12:00 +29°C° 0 mm 4 mps 744 mmHg 61%
    13:00 +30°C° 0 mm 4 mps 744 mmHg 60%
    14:00 +30°C° 0 mm 4 mps 744 mmHg 60%
    15:00 +30°C° 0 mm 4 mps 744 mmHg 63%
    16:00 +29°C° 0 mm 3 mps 744 mmHg 67%
    17:00 +29°C° 0 mm 3 mps 744 mmHg 70%
    18:00 +27°C° 0 mm 3 mps 744 mmHg 74%
    19:00 +26°C° 0 mm 3 mps 744 mmHg 77%
    20:00 +24°C° 0 mm 3 mps 744 mmHg 81%
    21:00 +22°C° 0 mm 3 mps 744 mmHg 83%
    22:00 +22°C° 0 mm 3 mps 744 mmHg 85%
    23:00 +21°C° 0 mm 3 mps 744 mmHg 87%
    Show more